[[{"header":{"parameterUnit":"m.s-1","parameterCategory":1,"la1":30.2991,"la2":30.254,"lo1":-89.0895,"lo2":-89.0444,"dy":0.0017,"dx":0.0017,"nx":28,"ny":28,"refTime":"2025-01-19T03:00:00:Z","depth":0,"parameterNumber":2,"parameterNumberName":"U-component_of_WINDS"},"data":[0,0,0,0,0,0,0,0,0,0,0,0,0,0,0,0,0,0,0,0,0,0,0,0,0,0,0,0,0,0,0,0,0,0,0,0,0,0,0,0,0,0,0,0,0,0,0,0,0,0,0,0,0,0,0,0,0,0,-1.2995,-1.2995,0,-1.3074,-1.3075,-1.3076,-1.3028,-1.3026,-1.3024,-1.3022,-1.3107,-1.3111,-1.3115,0,0,0,0,0,0,0,0,0,0,0,0,0,-1.2803,-1.2806,-1.2995,-1.2996,-1.2997,-1.3074,-1.3075,-1.3077,-1.3029,-1.3026,-1.3023,-1.3021,-1.3105,-1.311,-1.3116,0,0,0,0,0,0,0,0,0,0,0,0,0,-1.2885,-1.2808,-1.2994,-1.2982,-1.2982,-1.3074,-1.3075,-1.3077,-1.3029,-1.3026,-1.3022,-1.3019,-1.3104,-1.311,-1.3117,-1.3227,0,0,-1.3137,-1.314,0,0,0,0,0,0,0,0,-1.288,-1.2892,-1.2983,-1.2983,-1.2983,-1.3038,-1.3039,-1.3127,-1.303,-1.3011,-1.3022,-1.3018,-1.3087,-1.3095,-1.3117,-1.3231,-1.3234,-1.3137,-1.3141,-1.3144,-1.3146,0,0,0,0,0,0,0,-1.2874,-1.2888,-1.3026,-1.2984,-1.2984,-1.2973,-1.2981,-1.3055,-1.3068,-1.3013,-1.3009,-1.3019,-1.3086,-1.3111,-1.3119,-1.3235,-1.3137,-1.3143,-1.3147,-1.315,-1.3442,-1.3446,0,0,0,0,0,0,-1.2869,-1.2884,-1.3024,-1.3029,-1.2922,-1.2979,-1.2988,-1.3024,-1.3067,-1.307,-1.3022,-1.3017,-1.3101,-1.3111,-1.3122,-1.3253,-1.3144,-1.315,-1.3154,-1.3438,-1.3443,-1.3447,0,0,0,0,0,0,-1.2865,-1.2882,-1.302,-1.2955,-1.2972,-1.2986,-1.3027,-1.3027,-1.3052,-1.3074,-1.3076,-1.3045,-1.3099,-1.3112,-1.32,-1.3256,-1.3153,-1.3159,-1.3434,-1.344,-1.3445,-1.3518,0,0,0,0,0,0,-1.286,-1.2881,-1.2923,-1.2957,-1.2976,-1.3098,-1.303,-1.3031,-1.3063,-1.3057,-1.3096,-1.3099,-1.3097,-1.3191,-1.3207,-1.3263,-1.3165,-1.3429,-1.3437,-1.3443,-1.3511,-1.3525,-1.3538,0,0,0,0,0,-1.2853,-1.2941,-1.2925,-1.2942,-1.3028,-1.3101,-1.3112,-1.3107,-1.3068,-1.311,-1.3124,-1.3098,-1.3246,-1.32,-1.3218,-1.3277,-1.3426,-1.3434,-1.3443,-1.3505,-1.3522,-1.3538,0,0,0,0,0,0,-1.2915,-1.2945,-1.2928,-1.3029,-1.3063,-1.3093,-1.3146,-1.3126,-1.3173,-1.3165,-1.3158,-1.3167,-1.3259,-1.3276,-1.3224,-1.3385,-1.333,-1.3343,-1.3371,-1.3388,-1.3401,-1.3396,-1.317,0,0,0,0,0,-1.294,-1.2996,-1.302,-1.3107,-1.3124,-1.3132,-1.3164,-1.3157,-1.3192,-1.3206,-1.3226,-1.3262,-1.3317,-1.3353,-1.3404,-1.3512,-1.352,-1.3561,-1.3575,-1.3586,-1.3597,-1.3655,-1.3674,-1.3475,-1.3475,-1.3475,0,0,-1.2994,-1.3017,-1.3053,-1.312,-1.3145,-1.3204,-1.3145,-1.321,-1.3253,-1.3216,-1.3301,-1.3317,-1.3356,-1.3454,-1.3498,-1.3471,-1.3654,-1.3597,-1.3605,-1.3611,-1.3666,-1.3685,-1.3702,-1.3481,-1.348,-1.3479,0,0,-1.3121,-1.3143,-1.3218,-1.3244,-1.3282,-1.3287,-1.3304,-1.3337,-1.3346,-1.343,-1.3403,-1.3455,-1.3549,-1.3578,-1.3605,-1.3741,-1.3719,-1.3758,-1.383,-1.3886,-1.3902,-1.3916,-1.3965,-1.3983,-1.3769,-1.3769,-1.3769,0,-1.3182,-1.3269,-1.3259,-1.3326,-1.3356,-1.3323,-1.3399,-1.3425,-1.3479,-1.3501,-1.3469,-1.3586,-1.361,-1.3714,-1.3747,-1.377,-1.3791,-1.3754,-1.39,-1.3914,-1.3927,-1.3974,-1.3992,-1.3773,-1.3773,-1.3772,-1.3772,0,-1.3343,-1.3404,-1.346,-1.3511,-1.3547,-1.3618,-1.362,-1.3657,-1.3647,-1.3654,-1.374,-1.3767,-1.3823,-1.3847,-1.3838,-1.395,-1.3932,-1.3901,-1.3846,-1.3951,-1.3995,-1.4012,-1.378,-1.3778,-1.3777,-1.3776,0,0,-1.3514,-1.3557,-1.3578,-1.3601,-1.3639,-1.3686,-1.3755,-1.3809,-1.3842,-1.3879,-1.3937,-1.4017,-1.3987,-1.4018,-1.4011,-1.406,-1.4167,-1.4023,-1.4024,-1.405,-1.4292,-1.4317,-1.4338,-1.4151,-1.4154,-1.4157,-1.4289,0,-1.3645,-1.3765,-1.3757,-1.387,-1.3926,-1.3895,-1.3955,-1.3985,-1.3994,-1.4043,-1.4052,-1.4109,-1.4065,-1.4083,-1.4131,-1.4144,-1.4216,-1.4134,-1.4207,-1.4209,-1.42,-1.4361,-1.4388,-1.4511,-1.4306,-1.4309,-1.4311,0,-1.3813,-1.3855,-1.3974,-1.4003,-1.4026,-1.408,-1.4128,-1.4175,-1.4208,-1.4211,-1.4244,-1.4229,-1.4299,-1.424,-1.4337,-1.4281,-1.431,-1.4321,-1.4325,-1.4334,-1.4268,-1.4375,-1.455,-1.457,-1.4338,-1.4336,-1.4334,0,-1.3927,-1.4013,-1.4095,-1.4115,-1.4151,-1.419,-1.4207,-1.4236,-1.4269,-1.431,-1.4331,-1.4381,-1.4409,-1.4448,-1.4446,-1.4403,-1.4545,-1.4486,-1.455,-1.455,-1.4583,-1.4581,-1.4767,-1.4599,-1.4599,-1.4598,-1.4598,0,-1.4075,-1.4149,-1.4147,-1.4197,-1.4279,-1.4269,-1.4351,-1.4363,-1.439,-1.4443,-1.4418,-1.4468,-1.4462,-1.4513,-1.4512,-1.4592,-1.4605,-1.4609,-1.4608,-1.4613,-1.4612,-1.4633,-1.4625,-1.4603,-1.4602,-1.4601,-1.46,0,-1.4217,-1.4219,-1.4306,-1.4332,-1.434,-1.4399,-1.4422,-1.447,-1.4475,-1.4542,-1.4557,-1.4566,-1.4624,-1.4625,-1.4692,-1.4691,-1.479,-1.4779,-1.4779,-1.4777,-1.4841,-1.4836,-1.5049,-1.5076,-1.4889,-1.489,-1.4892,0,-1.4312,-1.4368,-1.44,-1.4432,-1.4451,-1.4505,-1.4537,-1.4529,-1.4564,-1.4605,-1.4648,-1.4703,-1.4747,-1.4841,-1.4854,-1.4905,-1.4896,-1.4967,-1.4904,-1.4906,-1.4898,-1.4896,-1.4901,-1.498,-1.4982,-1.4984,-1.4985,0,-1.4481,-1.4478,-1.4525,-1.4572,-1.4611,-1.4648,-1.4682,-1.4711,-1.4706,-1.4747,-1.4805,-1.4839,-1.4906,-1.4961,-1.501,-1.5028,-1.5007,-1.5004,-1.5022,-1.5028,-1.5026,-1.5029,-1.4814,-1.5,-1.4999,-1.4998,-1.4997,-1.4996,-1.4604,-1.4652,-1.4681,-1.4734,-1.4758,-1.479,-1.4836,-1.4846,-1.4894,-1.4948,-1.494,-1.5005,-1.5036,-1.5099,-1.512,-1.5171,-1.5147,-1.5172,-1.5179,-1.5186,-1.5193,-1.5016,-1.518,-1.5179,-1.5179,-1.5179,-1.5178,0,-1.4772,-1.4788,-1.4837,-1.4885,-1.4926,-1.49,-1.4936,-1.4973,-1.503,-1.506,-1.5103,-1.517,-1.5223,-1.5238,-1.529,-1.5328,-1.5319,-1.5341,-1.534,-1.5344,-1.5212,-1.5192,-1.5348,-1.5347,-1.5347,-1.5347,-1.5347,-1.5347,-1.4865,-1.4944,-1.4945,-1.5036,-1.5052,-1.5115,-1.5138,-1.5167,-1.5191,-1.5266,-1.531,-1.5319,-1.5343,-1.5396,-1.5443,-1.5446,-1.5467,-1.5494,-1.5494,-1.537,-1.5353,-1.5337,-1.5319,-1.5498,-1.5498,-1.5622,-1.5623,-1.5624]},{"header":{"parameterUnit":"m.s-1","parameterCategory":1,"la1":30.2991,"la2":30.254,"lo1":-89.0895,"lo2":-89.0444,"dy":0.0017,"dx":0.0017,"nx":28,"ny":28,"refTime":"2025-01-19T03:00:00:Z","depth":0,"parameterNumber":3,"parameterNumberName":"V-component_of_WINDS"},"data":[0,0,0,0,0,0,0,0,0,0,0,0,0,0,0,0,0,0,0,0,0,0,0,0,0,0,0,0,0,0,0,0,0,0,0,0,0,0,0,0,0,0,0,0,0,0,0,0,0,0,0,0,0,0,0,0,0,0,-7.0675,-7.0676,0,-7.0798,-7.0799,-7.08,-7.0697,-7.0693,-7.0688,-7.0684,-7.0806,-7.0813,-7.082,0,0,0,0,0,0,0,0,0,0,0,0,0,-7.0345,-7.0352,-7.0675,-7.0676,-7.0678,-7.0797,-7.0799,-7.0801,-7.0698,-7.0692,-7.0687,-7.0682,-7.0803,-7.0812,-7.0821,0,0,0,0,0,0,0,0,0,0,0,0,0,-7.048,-7.0354,-7.0674,-7.0641,-7.0639,-7.0797,-7.0799,-7.0801,-7.0699,-7.0692,-7.0686,-7.068,-7.0801,-7.0811,-7.0822,-7.1018,0,0,-7.0855,-7.086,0,0,0,0,0,0,0,0,-7.0473,-7.0492,-7.0644,-7.0643,-7.0642,-7.0725,-7.0727,-7.0874,-7.07,-7.0676,-7.0684,-7.0677,-7.0784,-7.0796,-7.0833,-7.1024,-7.1029,-7.0856,-7.0863,-7.0867,-7.087,0,0,0,0,0,0,0,-7.0464,-7.0486,-7.0723,-7.0646,-7.0645,-7.0618,-7.063,-7.0755,-7.0764,-7.0678,-7.067,-7.0687,-7.0782,-7.0823,-7.0835,-7.1031,-7.0856,-7.0865,-7.0872,-7.0876,-7.1386,-7.1393,0,0,0,0,0,0,-7.0458,-7.0479,-7.0719,-7.0727,-7.054,-7.0629,-7.0642,-7.0705,-7.0763,-7.0766,-7.0692,-7.0681,-7.0807,-7.0822,-7.0839,-7.1071,-7.0867,-7.0877,-7.0884,-7.1379,-7.1388,-7.1395,0,0,0,0,0,0,-7.0452,-7.0481,-7.0714,-7.0601,-7.0629,-7.0642,-7.0713,-7.0711,-7.0751,-7.0774,-7.0775,-7.0732,-7.0803,-7.0824,-7.0974,-7.1074,-7.0882,-7.0892,-7.1371,-7.1382,-7.1392,-7.1538,0,0,0,0,0,0,-7.0443,-7.0479,-7.0555,-7.0604,-7.0635,-7.085,-7.0719,-7.0718,-7.0771,-7.0758,-7.0812,-7.0814,-7.0799,-7.0958,-7.0985,-7.1085,-7.0901,-7.1362,-7.1376,-7.1388,-7.1525,-7.1553,-7.1577,0,0,0,0,0,-7.0431,-7.0591,-7.0559,-7.0589,-7.0731,-7.0856,-7.0873,-7.0854,-7.0779,-7.0855,-7.0869,-7.0813,-7.1059,-7.0975,-7.1004,-7.1109,-7.1356,-7.1372,-7.1387,-7.1513,-7.1547,-7.1576,0,0,0,0,0,0,-7.0552,-7.0597,-7.0562,-7.0743,-7.0797,-7.0838,-7.0933,-7.0891,-7.0966,-7.0951,-7.0922,-7.0935,-7.1094,-7.1116,-7.1022,-7.1301,-7.1195,-7.1217,-7.1281,-7.1313,-7.1339,-7.133,-7.091,0,0,0,0,0,-7.06,-7.0699,-7.0732,-7.0888,-7.0917,-7.0921,-7.0974,-7.0955,-7.1008,-7.103,-7.1055,-7.1108,-7.1197,-7.1256,-7.1339,-7.1527,-7.1536,-7.1614,-7.1639,-7.1661,-7.168,-7.178,-7.1814,-7.1447,-7.1447,-7.1447,0,0,-7.07,-7.0736,-7.0801,-7.0913,-7.0952,-7.1054,-7.094,-7.1053,-7.1127,-7.1046,-7.119,-7.1211,-7.1267,-7.1437,-7.1513,-7.1461,-7.1783,-7.1681,-7.1698,-7.1706,-7.1799,-7.1834,-7.1865,-7.1458,-7.1456,-7.1454,0,0,-7.0933,-7.0972,-7.1105,-7.1147,-7.1208,-7.1209,-7.1241,-7.1289,-7.13,-7.1444,-7.1386,-7.1472,-7.1627,-7.167,-7.1711,-7.196,-7.191,-7.1987,-7.2123,-7.222,-7.2249,-7.2274,-7.2362,-7.2394,-7.2007,-7.2007,-7.2007,0,-7.1049,-7.1202,-7.1179,-7.1296,-7.1346,-7.1279,-7.1413,-7.1454,-7.1539,-7.1574,-7.1515,-7.1706,-7.174,-7.1918,-7.1978,-7.2015,-7.2049,-7.1981,-7.2247,-7.2272,-7.2296,-7.2379,-7.2412,-7.2016,-7.2015,-7.2014,-7.2013,0,-7.134,-7.1447,-7.1547,-7.1632,-7.1693,-7.1818,-7.1813,-7.1878,-7.1852,-7.1859,-7.2006,-7.2044,-7.2133,-7.2173,-7.215,-7.2348,-7.2313,-7.2251,-7.2144,-7.234,-7.2417,-7.2449,-7.2029,-7.2026,-7.2023,-7.2021,0,0,-7.1655,-7.1725,-7.1762,-7.1799,-7.1861,-7.1942,-7.2062,-7.2151,-7.2206,-7.2266,-7.2366,-7.2497,-7.244,-7.2487,-7.2467,-7.2553,-7.2745,-7.2479,-7.248,-7.2527,-7.2965,-7.3011,-7.3049,-7.2713,-7.2719,-7.2723,-7.296,0,-7.189,-7.2102,-7.2085,-7.2285,-7.2381,-7.2318,-7.2423,-7.2471,-7.248,-7.2562,-7.2571,-7.2665,-7.2582,-7.261,-7.2692,-7.2705,-7.2833,-7.2688,-7.2803,-7.2808,-7.2791,-7.3089,-7.3139,-7.336,-7.299,-7.2995,-7.2999,0,-7.2194,-7.2266,-7.2476,-7.2522,-7.2562,-7.2657,-7.2735,-7.2815,-7.2867,-7.2868,-7.2921,-7.2886,-7.3005,-7.2896,-7.3059,-7.296,-7.3006,-7.302,-7.3028,-7.3037,-7.2915,-7.3107,-7.3431,-7.3464,-7.3046,-7.3043,-7.3039,0,-7.2401,-7.255,-7.2695,-7.2728,-7.2786,-7.2854,-7.2881,-7.2927,-7.298,-7.3049,-7.3083,-7.3164,-7.3208,-7.327,-7.3257,-7.3179,-7.3423,-7.3313,-7.3425,-7.3426,-7.348,-7.3477,-7.3815,-7.3511,-7.351,-7.3509,-7.3509,0,-7.2666,-7.2797,-7.2789,-7.2878,-7.3021,-7.2999,-7.3141,-7.3159,-7.3201,-7.329,-7.324,-7.3325,-7.3303,-7.3386,-7.3376,-7.3512,-7.3532,-7.3535,-7.3531,-7.354,-7.3539,-7.3569,-7.3553,-7.3518,-7.3516,-7.3514,-7.3513,0,-7.2922,-7.2922,-7.3075,-7.3117,-7.3131,-7.3235,-7.3269,-7.3352,-7.3357,-7.3471,-7.3496,-7.3503,-7.3599,-7.3592,-7.37,-7.3693,-7.386,-7.3838,-7.3844,-7.3839,-7.3951,-7.3941,-7.4321,-7.4369,-7.4034,-7.4037,-7.404,0,-7.3091,-7.3191,-7.3243,-7.33,-7.3332,-7.3425,-7.3479,-7.346,-7.3519,-7.3585,-7.366,-7.3751,-7.3823,-7.3978,-7.3992,-7.4073,-7.4052,-7.4179,-7.4064,-7.4069,-7.4053,-7.4047,-7.4056,-7.4202,-7.4206,-7.4209,-7.4212,0,-7.3391,-7.3386,-7.3468,-7.355,-7.3617,-7.368,-7.3737,-7.3786,-7.3772,-7.3841,-7.3939,-7.3995,-7.4104,-7.4195,-7.4272,-7.4297,-7.4252,-7.4248,-7.4278,-7.4288,-7.4287,-7.4288,-7.3905,-7.4239,-7.4236,-7.4234,-7.4233,-7.4232,-7.3609,-7.3693,-7.3743,-7.3835,-7.3877,-7.3931,-7.4011,-7.4026,-7.4108,-7.4197,-7.4179,-7.4289,-7.4336,-7.4436,-7.4468,-7.4552,-7.4506,-7.455,-7.4561,-7.4573,-7.4585,-7.4274,-7.4566,-7.4565,-7.4565,-7.4564,-7.4563,0,-7.3905,-7.3934,-7.4019,-7.4101,-7.4174,-7.4126,-7.4187,-7.425,-7.4347,-7.4396,-7.4468,-7.458,-7.4667,-7.4687,-7.477,-7.4833,-7.4814,-7.4856,-7.485,-7.4857,-7.4622,-7.4587,-7.4869,-7.4869,-7.4869,-7.4869,-7.4869,-7.4869,-7.4068,-7.4208,-7.4209,-7.4369,-7.4396,-7.4504,-7.4543,-7.4592,-7.4631,-7.4758,-7.4831,-7.4844,-7.4881,-7.4966,-7.5043,-7.5046,-7.5079,-7.5128,-7.5123,-7.4904,-7.4873,-7.4844,-7.4811,-7.5136,-7.5136,-7.5351,-7.5353,-7.5354]}]]